sat.trackr.live / text

‹ back to catalog

STARLINK-36042

NORAD 66813 · 2025-278Y

PAYLOAD ACTIVE UNKNOWN

§ Identity

Operator
Country
US
Launch date
2025-12-01
Launch site
AFETR
Launch vehicle
Mass (kg)
RCS (m²)

Purposes: comms

External: N2YO · Heavens-Above · Gunter

§ Orbital elements

Epoch: 2026-05-25T03:10:07.946688Z

Period
94.27 min
Inclination
43.0020°
Eccentricity
0.0001233
Mean motion
15.27595464 rev/d
Perigee alt
482.2 km
Apogee alt
483.8 km
Semi-major
6,861.1 km
B*
1.0250e-3
RAAN
42.3387°
Arg perigee
258.2622°
Mean anomaly
101.8091°
Rev number
2,690

§ Raw data

STARLINK-360421 66813U 25278Y   26145.13203642  .00028063  00000+0  10250-2 0  99952 66813  43.0020  42.3387 0001233 258.2622 101.8091 15.27595464 26903

JSON: /api/v1/satellites/66813 · /tle

For live sub-satellite position, see the globe view (requires WebGL).

§ Visibility from observer

Set your observer location to see the next 7 days of passes ≥ 10°. The values pass through the URL so the page stays shareable.

No JS? Fill the form by hand. The geolocation button needs JavaScript.